Regional Weather Roundup
Issued by NWS

Home | Current Version | Previous Version | Text Only | Print | Product List | Glossary On
Versions: 1 2 3 4 5 6 7 8 9 10 11 12 13 14 15 16 17 18 19 20 21 22 23 24 25 26 27 28 29 30 31 32 33 34 35 36 37 38 39 40 41 42 43 44 45 46 47 48 49 50
000
ASUS43 KBIS 190802
RWRND

NORTH DAKOTA REGIONAL WEATHER ROUNDUP
NATIONAL WEATHER SERVICE BISMARCK ND
300 AM CDT THU OCT 19 2017

NOTE: "FAIR" INDICATES FEW OR NO CLOUDS BELOW 12,000 FEET WITH NO
SIGNIFICANT WEATHER AND/OR OBSTRUCTIONS TO VISIBILITY.


NDZ001>003-009>011-017-190900-
NORTHWEST NORTH DAKOTA

CITY           SKY/WX    TMP DP  RH WIND       PRES   REMARKS
WILLISTON      CLOUDY    38  26  62 S5        29.77F
MINOT          CLOUDY    41  30  65 SE5       29.81F
MINOT AFB      PTCLDY    34  25  70 S7        29.79F
$$

NDZ018>021-031>035-040>046-190900-
SOUTHWEST NORTH DAKOTA

CITY           SKY/WX    TMP DP  RH WIND       PRES   REMARKS
BISMARCK       CLOUDY    38  27  64 NE9       29.88F
DICKINSON      PTCLDY    45  25  45 S14       29.80F
GARRISON         N/A     40  32  73 SE5       29.84F
HETTINGER ARPT CLOUDY    35  24  64 SE5       29.87F
$$

NDZ004>008-012>016-024-026-027-054-190900-
NORTHEAST NORTH DAKOTA

CITY           SKY/WX    TMP DP  RH WIND       PRES   REMARKS
GRAND FORKS    CLEAR     38  26  62 SW6       29.91R
GRND FRKS AFB  CLOUDY    39  24  56 SW9       29.90F
DEVILS LAKE    CLOUDY    45  33  63 S6        29.89F
$$

NDZ022-023-025-028>030-036>039-047>053-190900-
SOUTHEAST NORTH DAKOTA

CITY           SKY/WX    TMP DP  RH WIND       PRES   REMARKS
FARGO          CLOUDY    40  28  62 S6        29.95S
JAMESTOWN      CLOUDY    33  26  75 S3        29.92F
$$





USA.gov is the U.S. government's official web portal to all federal, state and local government web resources and services.